Location: Sternwarte Stuttgart
(48.7670°N, 9.1830°E)
Time: 07:10:16
(UTC+02:00)

Daily predictions for brighter satellites

Satellite Brightness Start Highest point End
(mag) Time Altitude Azimuth Time Altitude Azimuth Time Altitude Azimuth
ATLAS CENTAUR R/B 4.2 19:28:54 10° S 19:34:11 43° ESE 19:49:09 10° NE
METEOR-M 4.4 19:32:59 10° SE 19:38:07 50° ENE 19:43:18 10° N
CZ-4C R/B 2.5 19:35:04 10° SW 19:40:32 80° NW 19:46:48 10° NE
Cosmos 1464 Rocket 4.2 19:35:41 10° SSE 19:41:39 50° E 19:47:34 10° NNE
Cosmos 1437 3.7 19:38:36 10° NNW 19:41:49 54° W 19:45:01 10° S
Cosmos 2219 Rocket 3.4 19:40:24 10° SW 19:45:49 47° NW 19:51:18 10° NNE
Cosmos 1607 4.3 19:40:38 10° SW 19:46:47 71° NW 19:52:58 10° NE
USA 215 4.1 19:43:07 10° ENE 19:48:43 30° SE 19:54:17 10° S
Spot 2 Rocket 3.6 19:44:36 10° SE 19:49:30 55° ENE 19:54:26 10° N
Cosmos 2278 Rocket 4.4 19:45:14 10° NW 19:50:05 30° WSW 19:54:54 10° SSW
Helios 1B rocket 3.3 19:47:02 10° NE 19:50:38 28° E 19:54:13 10° SSE
Cosmos 1766 Rocket 3.6 19:46:31 10° N 19:50:52 58° ENE 19:55:09 10° SSE
Cosmos 1346 4.1 19:48:21 10° NNE 19:50:56 26° ENE 19:53:30 10° SE
FENGYUN 3A 4.3 19:46:22 10° SE 19:51:13 36° ENE 19:56:06 10° N
Cosmos 1766 3.2 19:49:20 10° S 19:53:16 70° E 19:57:17 10° NNE
Cosmos 292 Rocket 4.4 19:49:24 10° SW 19:54:09 62° WNW 19:58:58 10° NNE
TELKOM 3 3.5 19:52:01 10° WNW 19:55:13 66° SSW 19:57:13 13° ESE
Spot 1 4.2 19:51:36 10° SSE 19:56:13 69° ENE 20:00:37 10° N
Cosmos 1076 Rocket 3.5 19:53:43 10° N 19:58:04 82° E 20:02:25 10° SSE
Cosmos 192 4.3 19:57:13 10° S 20:02:06 63° ESE 20:07:01 10° NNE
Cosmos 1544 4.0 20:00:06 10° SSE 20:03:19 28° E 20:06:33 10° NNE
Cosmos 1378 4.0 20:01:54 10° NNW 20:05:34 54° W 20:09:12 10° S
Meteor 1-22 Rocket 4.2 20:00:49 10° SSW 20:06:08 83° W 20:11:28 10° N
ATLAS 3B R/B 3.9 19:59:21 10° WSW 20:06:34 46° NW 20:13:32 10° NE
CZ-2D R/B 4.1 20:03:23 10° SE 20:06:50 31° ENE 20:10:18 10° N
Cosmos 2369 Rocket 2.8 20:02:37 10° NNW 20:07:56 39° NE 20:12:28 14° ESE
Cosmos 1943 Rocket 3.5 20:04:15 10° N 20:08:40 23° NE 20:11:59 14° E
Cosmos-2242 3.3 20:04:57 10° SSE 20:09:06 45° E 20:13:19 10° NNE
ATLAS CENTAUR R/B 4.3 20:08:16 10° WNW 20:10:30 14° WSW 20:12:39 10° SW
ERBS 3.9 20:09:38 10° NW 20:12:40 26° NNE 20:14:52 15° ENE
Cosmos 1943 4.4 20:09:18 10° SE 20:13:09 19° E 20:16:58 10° ENE
ALOS 2.5 20:10:06 10° SE 20:14:37 51° ENE 20:19:09 10° N
Cosmos 2151 4.2 20:11:17 10° NNE 20:14:37 22° ENE 20:16:10 18° E
Meteor 1-28 Rocket 3.2 20:11:29 10° NNE 20:15:14 86° WNW 20:18:57 10° SSW
Cosmos 1603 4.0 20:12:13 10° S 20:17:38 44° ESE 20:23:04 10° NE
Cosmos 2058 4.5 20:15:48 10° NNE 20:18:31 17° ENE 20:19:00 17° ENE
H-2A R/B 3.2 20:18:05 12° SE 20:21:26 42° ENE 20:25:06 10° N
Cosmos 1953 2.2 20:18:14 10° S 20:22:11 69° E 20:26:10 10° NNE
Cosmos 1805 3.2 20:18:33 10° S 20:22:27 68° E 20:26:24 10° NNE
Cosmos 1408 Rocket 4.1 20:19:35 10° NNW 20:23:55 62° W 20:28:10 10° S
Cosmos 1500 Rocket 3.8 20:19:50 10° N 20:24:09 47° ENE 20:28:19 11° SSE
NOSS 3-2 (A) 3.5 20:20:23 10° SW 20:26:33 89° SE 20:33:24 10° NE
Cosmos 1842 Rocket 4.1 20:23:44 10° SSE 20:27:40 35° E 20:31:39 10° NNE
Cosmos 724 4.4 20:22:31 10° SSW 20:28:18 55° ESE 20:34:15 10° NE
Cosmos 2333 Rocket 4.1 20:27:32 10° WSW 20:32:37 31° NW 20:37:43 10° NNE
SeaSat 1 4.1 20:28:56 10° NE 20:35:10 16° SE 20:36:31 10° SSE
ISS -0.9 20:32:50 10° S 20:33:14 12° SSE 20:33:14 12° SSE
ERS-1 Rocket 3.8 20:35:17 24° E 20:37:06 30° ENE 20:41:28 10° N
Cosmos 482 Debris 4.3 20:37:45 10° WNW 20:39:57 39° N 20:40:51 30° NE
FengYun 1-2 T 4.4 20:37:28 10° S 20:42:58 72° WSW 20:48:29 10° NNW
Nadezhda 4 Rocket 4.0 20:38:02 10° N 20:44:22 86° W 20:50:35 10° S
Cosmos 1470 2.8 20:41:55 10° S 20:45:41 49° E 20:49:27 10° NNE
Resurs 1-3 4.3 20:44:10 10° S 20:48:29 56° W 20:52:50 10° NNW
Cosmos 1733 3.4 20:49:05 33° SE 20:50:20 46° E 20:54:04 10° NNE
Resurs 01 Rocket 2.9 20:47:01 10° S 20:51:14 42° W 20:55:30 10° NNW
Cosmos 1092 Rocket 3.9 20:45:52 10° N 20:52:08 82° E 20:58:17 10° S
Helios 1A 4.2 20:48:07 10° S 20:52:08 43° W 20:56:12 10° NNW
Cosmos 1743 Rocket 4.0 20:48:29 10° NNW 20:52:55 65° W 20:57:17 10° S
USA 186 2.6 20:54:03 27° N 20:54:03 27° N 20:55:22 10° N
Cosmos 1655 Rocket 4.3 20:47:11 10° N 20:53:10 46° ENE 20:56:07 28° SE
Cosmos 2237 Rocket 4.3 20:49:15 10° WSW 20:54:00 26° NW 20:58:44 10° NNE
ATLAS 5 CENTAUR R/B 1.9 20:49:17 10° SW 20:54:09 82° NW 20:59:32 10° NE
Meteor 1-29 3.5 20:52:58 10° N 20:56:28 62° WNW 20:59:55 10° SSW
Cosmos 1674 2.9 20:54:38 10° NNW 20:58:32 71° W 21:01:27 17° S
CENTAUR R/B 2.9 20:53:10 10° S 20:58:49 40° ESE 21:05:09 10° NE
SJ-11-01 4.4 21:02:29 42° ESE 21:03:39 53° ENE 21:08:14 10° N
CZ-4B DEB 4.0 21:01:55 15° SSW 21:04:20 43° W 21:07:29 10° NNW
NOSS 3-2 (C) 3.8 20:59:17 10° SW 21:05:29 70° NW 21:12:22 10° NE
Cosmos 2026 Rocket 3.9 20:59:40 10° N 21:05:42 61° ENE 21:08:50 29° SSE
ASTEX 1 3.5 21:05:54 10° N 21:10:49 76° W 21:15:42 10° SSW
Cosmos 1634 Rocket 3.9 21:05:26 10° S 21:11:37 69° E 21:17:48 10° NNE
Cosmos 1331 Rocket 4.0 21:07:13 10° NNW 21:12:31 61° ENE 21:13:49 47° ESE
Sich 1 4.3 21:09:46 10° N 21:12:35 27° NE 21:12:35 27° NE
GP-B 3.0 21:09:30 10° N 21:13:59 82° E 21:15:52 35° S
SL-16 R/B 3.8 21:09:13 10° WSW 21:14:26 36° NW 21:19:40 10° NNE
SL-24 R/B - RUBIN 2 4.5 21:08:38 10° NW 21:15:25 75° NE 21:17:49 41° SE
ARGOS 4.4 21:19:43 25° NE 21:19:43 25° NE 21:23:43 10° N
Cosmos 1302 Rocket 4.3 21:19:15 10° NNW 21:24:17 47° ENE 21:24:29 47° ENE
Helios 1B rocket 4.4 21:22:19 10° N 21:25:57 31° WNW 21:29:34 10° SW
Cosmos 2195 Rocket 4.5 21:21:15 10° N 21:27:36 85° W 21:31:37 24° S
CZ-4C R/B 4.1 21:25:04 10° W 21:30:04 28° NNW 21:35:40 10° NE
Cosmos 1328 4.1 21:26:10 10° NNW 21:30:07 63° W 21:30:34 58° SW
USA 215 3.1 21:27:27 20° ENE 21:32:18 86° SE 21:38:51 10° SW
Exosat Rocket 4.5 21:26:16 10° NNW 21:32:41 83° WSW 21:37:48 28° SSE
Cosmos 1048 Rocket 4.3 21:27:49 10° SSW 21:33:06 67° WNW 21:38:20 10° NNE
Cosmos 1939 Rocket 3.3 21:34:11 56° N 21:34:11 56° N 21:37:22 10° N
SPOT 5 3.7 21:36:45 32° NNE 21:36:45 32° NNE 21:39:31 10° N
Cosmos 1805 Rocket 3.7 21:31:14 10° N 21:35:08 64° NNE 21:35:08 64° NNE
H-2A R/B 3.1 21:37:29 37° NNE 21:37:29 37° NNE 21:40:38 10° N
SL-14 R/B 3.7 21:34:41 10° N 21:38:04 60° NNW 21:38:04 60° NNW
Envisat 2.8 21:38:41 73° SE 21:39:11 84° ENE 21:44:19 10° NNW
Meteor 2-20 Rocket 4.4 21:35:26 10° N 21:41:33 58° ENE 21:41:52 58° E
Meteor 2-20 4.3 21:35:31 10° N 21:41:42 72° ENE 21:42:39 61° SE
H-2A R/B 3.8 21:49:28 20° NNE 21:49:28 20° NNE 21:51:49 10° N
Cosmos 1633 Rocket 4.2 21:44:50 10° N 21:47:30 35° NNE 21:47:30 35° NNE
ERBS 4.2 21:46:19 10° NW 21:48:17 31° NW 21:48:17 31° NW
YAOGAN 11 4.4 21:50:39 61° W 21:50:39 61° W 21:54:40 10° NNW
Cosmos 2369 Rocket 3.2 21:46:43 10° NW 21:52:00 41° WSW 21:54:17 28° SSW
Cosmos 2221 3.9 21:54:06 31° N 21:54:06 31° N 21:56:23 10° N
Cosmos 2151 4.1 21:48:09 10° NNW 21:52:06 39° W 21:52:48 36° WSW
Cosmos 1943 Rocket 2.0 21:47:29 10° NNW 21:53:09 83° WSW 21:53:30 78° S
Cosmos 2058 3.8 21:51:48 10° NNW 21:55:15 47° WNW 21:55:15 47° WNW
Cosmos 1943 3.2 21:50:54 10° SSW 21:56:32 77° WNW 22:02:12 10° NNE
Cosmos 158 Rocket 4.2 21:54:44 10° SW 21:59:34 63° WNW 22:04:27 10° NNE
MetOp-B 4.3 22:05:12 63° NNE 22:05:12 63° NNE 22:09:48 10° NNW
Aureole 3 4.2 22:02:17 10° NNW 22:08:50 81° W 22:08:50 81° W
SeaSat 1 3.2 22:05:44 10° NNE 22:15:12 12° SW 22:15:32 10° SW
SPOT 1/Viking Rocket 4.4 22:12:22 40° NNE 22:12:22 40° NNE 22:15:49 10° N
Cosmos 2180 Rocket 4.4 22:13:57 83° WSW 22:14:05 84° W 22:20:17 10° N
ERS-1 Rocket 3.9 22:15:19 41° WSW 22:15:44 42° W 22:20:32 10° NNW
Meteor 2-1 Rocket 4.5 22:17:05 65° WSW 22:17:39 69° WNW 22:23:33 10° N
BREEZE-M DEB (TANK) 4.5 22:25:44 10° W 22:31:11 31° WSW 22:31:11 31° WSW
Terra 4.0 22:39:15 19° N 22:39:15 19° N 22:40:45 10° N
ATLAS 5 CENTAUR R/B 4.0 22:35:26 10° W 22:39:41 26° NNW 22:43:17 14° NNE
Cosmos 2266 Rocket 4.4 22:42:13 10° NNW 22:47:41 60° NW 22:47:41 60° NW
CENTAUR R/B 3.1 22:43:05 10° WSW 22:49:17 56° NW 22:56:22 10° NE
ARGOS 4.5 23:01:14 37° NW 23:01:14 37° NW 23:04:38 10° NNW
USA 215 3.9 23:14:50 50° N 23:15:05 50° NNW 23:21:20 10° W
CZ-4C R/B 4.5 23:15:53 10° NW 23:20:45 23° N 23:23:12 19° NE
Cosmos 1980 Rocket 4.3 23:19:13 10° N 23:21:42 20° N 23:21:42 20° N
H-2A R/B 4.2 23:30:06 22° NNW 23:30:06 22° NNW 23:31:59 10° NNW
ATLAS 3B R/B 4.2 23:46:06 10° NW 23:52:15 28° NNE 23:52:28 28° NNE
